NOAA 16 DEB, 41127

Orbit data source: Space-Track

NOAA 16 DEB, 41127 is space debris in SSO originally from a launch on Thu, 21 Sep 2000 UTC launched from the Air Force Western Test Range (AFWTR). Debris objects in space refer to the collection of defunct objects orbiting the Earth. Examples of debris include non-operational satellites, rocket bodies, and fragments generated from explosions, collisions, or faulty payload assembly.

Loading next visibility...
Identifier
41127, 2000-055BJ
Orbit
SSO
Country
Flag of USUS
Related business
Manufacturer
Unknown
Mission
Spacecraft
Bus & Motor
Unknown
Mass
Unknown
Launch date (UTC)
2000-09-21 (25 years ago)
Launch vehicle
Unknown
Launch site
Air Force Western Test Range (AFWTR)
Object type
Payload
Rocket body
Debris
Shape & HBR
Unknown
Radar Cross Section
Small (<0.1 m²)

Expand to show TLE details & history
Last TLE update: 15 hours ago

TLE from 15 hours ago
0 NOAA 16 DEB
1 41127U 00055BJ  25258.91541020  .00106644  00000-0  67848-2 0  9995
2 41127  98.8385 148.5902 0020183 244.1691 115.7452 15.08125932515145
Epoch: 2025-09-15T21:58Z
TLE epoch observation values (Epoch: 2025-09-15T21:58:11.441Z)
Latitude
0.00002°
Longitude
-176.07069°
Altitude
551.047 km
Speed
7.583 km/s
True Right ascension
09h 54m 21s
True Declination
0° 00' 00"
Sunlit
Object was in daylight at epoch
Visualization orbit readout
Latitude
Unknown
Longitude
Unknown
Altitude
Unknown
Speed
Unknown
Apparent Right ascension
Unknown
Apparent Declination
Unknown
Sunlit
N/A
Visualization observer readout
Local Sidereal Time
05:36:54
Azimuth
Unknown
Elevation
Unknown
Doppler factor
Unknown
Orbital elements
Apogee altitude
552.936 km
Perigee altitude
525.014 km
Semi-major axis
6,917.112 km
Eccentricity
0.00202
Inclination
98.8385°
RAAN
148.5902°
Arg. of periapsis
244.1691°
True anomaly
115.95329°
Mean anomaly
115.7452°
Eccentric anomaly
115.84927°
Mean motion
3.77273 °/min
Orbital period
95.42 mins
BSTAR
0.0067848
Loading maneuver chart data...
Computing Atmospheric mass density...
Loading historical data...
Loading historical data...
Loading historical data...
Loading historical data...
Loading historical data...
Loading historical data...
Loading historical data...

Documentation

Showing up to 5 results
|